Find Kosmos-830

NORAD ID: 8894 Int'l Des: 1976-054 Owner: GUKOSR Country: SU operational
LEOCIRCULAR

Aktuelle Ansicht

3D-Globus wird geladen...

About Kosmos-830

Kosmos-830 (NORAD 8894) is a satellite by GUKOSR of SU. It operates in LEO, CIRCULAR orbit

Nächste Überflüge

Passes for default location (London). Set your location on the main map for personalized predictions.

Höhenverlauf

Loading altitude history...

Zweizeiliger Elementsatz

1 08894U 76054F 26194.65323630 .00000002 00000-0 12498-3 0 9990
2 08894 74.0002 59.0138 0016110 281.4300 134.6895 12.46260943278175
Epoch: 13. Juli 2026 • Age: 11 hours

Aktueller Status

Höhe 1489.6 km
Apogäum / Perigäum N/A
Geschwindigkeit 7.12 km/s
Subsatellitenpunkt -44.99°S, 70.34°W
Typ other

Most Searched